Montpelier, VT

10:51 AM EST on November 21, 2019 (GMT -0500)
Knapp State

Weather History for KMPV - October, 2019

Change the Weather History Date:

Wednesday, October 23, 2019

  Actual Average Record
Temperature  
Mean Temperature 50 °F 43 °F  
Max Temperature 57 °F 53 °F 76 °F (1979)
Min Temperature 42 °F 33 °F 19 °F (1955)
Degree Days  
Heating Degree Days 15 22  
Month to date heating degree days 406 416  
Since 1 July heating degree days 716 771  
Cooling Degree Days 0 0  
Month to date cooling degree days 0 0  
Year to date cooling degree days 220 263  
Moisture  
Dew Point 45 °F    
Average Humidity 84    
Maximum Humidity 100    
Minimum Humidity 49    
Precipitation  
Precipitation 0.49 in 0.10 in 1.32 in (1958)
Month to date precipitation 4.60 2.61  
Year to date precipitation 42.21 30.53  
Sea Level Pressure  
Sea Level Pressure 29.90 in    
Wind  
Wind Speed 4 mph ()    
Max Wind Speed 15 mph    
Max Gust Speed 23 mph    
Visibility 6.9 miles    
Events Rain    
T = Trace of Precipitation, MM = Missing Value Source: Averaged Metar Reports

Daily Weather History Graph

Daily Weather History Graph

Search for Another Location

Airport or City:

Astronomy

Oct. 23, 2019 Rise Set
Actual Time 7:14 AM EDT 5:53 PM EDT
Civil Twilight 6:45 AM EDT 6:23 PM EDT
Nautical Twilight 6:11 AM EDT 6:56 PM EDT
Astronomical Twilight 5:38 AM EDT 7:30 PM EDT
Moon 1:13 AM EDT (10/23) 3:56 PM EDT (10/23)
Length of Visible Light 11h 37m
Length of Day
10h 38m
Waning Crescent, 27% of the Moon is Illuminated
Oct 23
Waning Crescent
Oct 27
New
Nov 4
First Quarter
Nov 12
Full
Nov 19
Last Quarter

Hourly Weather History & Observations

Time (EDT) Temp. Windchill Dew Point Humidity Pressure Visibility Wind Dir Wind Speed Gust Speed Precip Events Conditions
12:25 AM 48.9 °F - 48.0 °F 97% 29.89 in 5.0 mi ESE 5.8 mph - 0.08 in Rain Rain
12:51 AM 48.9 °F - 48.0 °F 97% 29.90 in 5.0 mi South 4.6 mph - 0.15 in Rain Rain
1:51 AM 50.0 °F - 48.0 °F 93% 29.86 in 5.0 mi SSW 5.8 mph - 0.09 in Rain Rain
2:10 AM 50.0 °F - 48.0 °F 93% 29.84 in 4.0 mi SSW 5.8 mph - 0.03 in Rain Light Rain
2:51 AM 50.0 °F - 48.9 °F 96% 29.86 in 4.0 mi West 4.6 mph - 0.08 in Rain Light Rain
3:00 AM 50.0 °F - 48.9 °F 96% 29.86 in 4.0 mi West 4.6 mph - 0.01 in Rain Light Rain
3:51 AM 50.0 °F - 48.9 °F 96% 29.86 in 9.0 mi SSE 6.9 mph - 0.05 in   Overcast
4:25 AM 50.0 °F - 48.9 °F 96% 29.83 in 10.0 mi Calm Calm - 0.00 in Rain Light Rain
4:51 AM 50.0 °F - 48.9 °F 96% 29.86 in 8.0 mi Calm Calm - 0.01 in   Overcast
5:08 AM 50.0 °F - 48.9 °F 96% 29.84 in 5.0 mi Calm Calm - 0.00 in Rain Light Rain
5:43 AM 48.9 °F - 48.9 °F 100% 29.85 in 1.8 mi NW 6.9 mph - 0.07 in Rain Rain
5:47 AM 48.2 °F - 48.2 °F 100% 29.87 in 2.0 mi West 6.9 mph - 0.07 in Rain Light Rain
5:51 AM 48.9 °F - 48.9 °F 100% 29.87 in 2.5 mi Variable 3.5 mph - 0.08 in Rain Light Rain
5:59 AM 48.9 °F - 48.9 °F 100% 29.86 in 4.0 mi Calm Calm - 0.02 in Rain Rain
6:19 AM 50.0 °F - 48.9 °F 96% 29.85 in 10.0 mi Calm Calm - 0.02 in   Overcast
6:51 AM 48.9 °F - 48.9 °F 100% 29.86 in 3.0 mi Calm Calm - 0.02 in   Overcast
6:54 AM 48.9 °F - 48.9 °F 100% 29.84 in 1.8 mi Calm Calm - N/A   Overcast
6:58 AM 48.9 °F - 48.9 °F 100% 29.85 in 1.0 mi Calm Calm - N/A   Overcast
7:08 AM 48.9 °F - 48.9 °F 100% 29.85 in 1.5 mi Calm Calm - N/A   Overcast
7:11 AM 48.9 °F - 48.9 °F 100% 29.84 in 3.0 mi Calm Calm - N/A   Overcast
7:51 AM 48.9 °F - 48.9 °F 100% 29.86 in 10.0 mi Calm Calm - N/A   Overcast
8:51 AM 51.1 °F - 48.9 °F 92% 29.87 in 10.0 mi NW 5.8 mph - N/A   Mostly Cloudy
9:51 AM 53.1 °F - 48.9 °F 86% 29.87 in 10.0 mi NW 8.1 mph - N/A   Scattered Clouds
10:51 AM 55.0 °F - 46.9 °F 74% 29.88 in 10.0 mi NW 4.6 mph - N/A   Clear
11:51 AM 55.9 °F - 44.1 °F 64% 29.87 in 10.0 mi North 6.9 mph - N/A   Mostly Cloudy
12:51 PM 57.0 °F - 43.0 °F 59% 29.87 in 10.0 mi NW 8.1 mph - N/A   Mostly Cloudy
1:51 PM 55.0 °F - 41.0 °F 59% 29.87 in 10.0 mi NW 6.9 mph - N/A   Overcast
2:51 PM 55.9 °F - 37.0 °F 49% 29.88 in 10.0 mi West 9.2 mph 20.7 mph N/A   Mostly Cloudy
3:51 PM 53.1 °F - 41.0 °F 64% 29.91 in 10.0 mi NW 6.9 mph 19.6 mph 0.01 in Rain Light Rain
4:51 PM 52.0 °F - 39.9 °F 63% 29.94 in 10.0 mi SW 5.8 mph - 0.00 in   Scattered Clouds
5:51 PM 52.0 °F - 37.9 °F 59% 29.96 in 10.0 mi West 5.8 mph - N/A   Mostly Cloudy
7:51 PM 46.0 °F 44.8 °F 35.1 °F 66% 30.04 in 10.0 mi WSW 3.5 mph - N/A   Clear
8:51 PM 50.0 °F - 34.0 °F 54% 30.05 in 10.0 mi West 9.2 mph - N/A   Clear
9:51 PM 48.9 °F - 35.1 °F 59% 30.09 in 10.0 mi WNW 5.8 mph 17.3 mph N/A   Mostly Cloudy
10:51 PM 50.0 °F - 35.1 °F 57% 30.09 in 10.0 mi West 9.2 mph - N/A   Mostly Cloudy
11:51 PM 50.0 °F - 35.1 °F 57% 30.09 in 10.0 mi SW 5.8 mph - N/A   Mostly Cloudy